Location: Unspecified
(35.6961°N, 0.0000°E)
Time: 17:16:31
(UTC+00:00)

Vanguard 2 Rocket - Pass Details

Date: 25 May 2019
Orbit: 554 x 3326 km, 32.9° (Epoch: 16 June)

Event Time Altitude Azimuth Distance (km) Brightness Sun altitude
Rises 07:40:10 0° 265° (W) 7,009 10.9 32.6°
Reaches altitude 10° 07:45:20 10° 265° (W) 5,712 10.5 33.6°
Maximum altitude 08:01:26 79° 182° (S) 1,974 9.2 36.9°
Drops below altitude 10° 08:10:20 10° 97° (E) 3,351 11.0 38.7°
Sets 08:12:35 0° 96° (E) 4,053 11.1 39.2°
